DL3NDS-13 Weather Reports


Display with metric or nautical units.
time (UTC)temp
F
wind
direction
speed
MPH
gust
MPH
rain 1hr
in
rain 24hr
in
rain mn
in
humidity
%
barometer
mb
20211027195821 45 0 0.0 3.0 0.00 0.00 0.00 91 1024.0
20211027194821 45 0 0.0 0.0 0.00 0.00 0.00 91 1024.0
20211027193821 45 0 0.0 1.0 0.00 0.00 0.00 91 1024.0
20211027192821 45 0 0.0 4.0 0.00 0.00 0.00 91 1024.2
20211027191820 45 0 0.0 4.0 0.00 0.00 0.00 90 1024.2
20211027190821 46 133 4.0 6.0 0.00 0.00 0.00 90 1024.3
20211027185821 46 0 0.0 3.0 0.00 0.00 0.00 90 1024.2
20211027184821 46 143 1.0 6.0 0.00 0.00 0.00 90 1024.2
20211027183820 46 132 1.0 4.0 0.00 0.00 0.00 90 1024.2
20211027182821 46 0 0.0 4.0 0.00 0.00 0.00 90 1024.4
20211027181820 46 155 1.0 4.0 0.00 0.00 0.00 90 1024.4
20211027180820 46 0 0.0 4.0 0.00 0.00 0.00 89 1024.5
20211027175820 46 118 1.0 4.0 0.00 0.00 0.00 89 1024.5
20211027174821 46 0 0.0 3.0 0.00 0.00 0.00 89 1024.4
20211027173820 46 0 0.0 3.0 0.00 0.00 0.00 89 1024.5
20211027172821 46 135 1.0 4.0 0.00 0.00 0.00 89 1024.4
20211027171820 47 0 0.0 8.0 0.00 0.00 0.00 89 1024.5
20211027170820 47 163 3.0 8.0 0.00 0.00 0.00 89 1024.5
20211027165820 47 167 3.0 6.0 0.00 0.00 0.00 88 1024.2
20211027164820 47 199 1.0 6.0 0.00 0.00 0.00 88 1024.0
20211027163820 47 145 1.0 6.0 0.00 0.00 0.00 89 1024.0
20211027162820 47 0 0.0 8.0 0.00 0.00 0.00 88 1024.0
20211027161820 47 199 1.0 6.0 0.00 0.00 0.00 88 1024.0
20211027160820 48 142 1.0 4.0 0.00 0.00 0.00 88 1024.0
20211027155820 48 175 4.0 8.0 0.00 0.00 0.00 87 1024.0
20211027154820 48 206 4.0 8.0 0.00 0.00 0.00 87 1024.3
20211027153820 48 0 0.0 3.0 0.00 0.00 0.00 87 1024.3
20211027152820 48 201 1.0 3.0 0.00 0.00 0.00 87 1024.3
20211027151820 48 201 1.0 6.0 0.00 0.00 0.00 87 1024.4
20211027150820 48 201 1.0 4.0 0.00 0.00 0.00 86 1024.4
20211027145820 48 201 3.0 6.0 0.00 0.00 0.00 87 1024.5
20211027144820 48 201 1.0 4.0 0.00 0.00 0.00 87 1024.5
20211027143820 48 0 0.0 4.0 0.00 0.00 0.00 87 1024.5
20211027142820 48 0 0.0 6.0 0.00 0.00 0.00 87 1024.8
20211027141820 48 201 3.0 6.0 0.00 0.00 0.00 87 1024.9
20211027140820 48 199 1.0 6.0 0.00 0.00 0.00 87 1024.9
20211027135820 48 0 0.0 6.0 0.00 0.00 0.00 87 1024.9
20211027134820 48 200 1.0 8.0 0.00 0.00 0.00 87 1024.8
20211027133820 48 160 3.0 8.0 0.00 0.00 0.00 87 1024.8
20211027132820 48 0 0.0 6.0 0.00 0.00 0.00 88 1024.7
20211027131820 48 187 3.0 8.0 0.00 0.00 0.00 89 1024.9
20211027130820 48 206 1.0 6.0 0.00 0.00 0.00 90 1025.0
20211027125820 47 206 1.0 6.0 0.00 0.00 0.00 90 1025.0
20211027124820 48 171 4.0 11.0 0.00 0.00 0.00 90 1024.9
20211027123820 48 179 4.0 14.0 0.00 0.00 0.00 90 1025.0
20211027122820 48 193 1.0 6.0 0.00 0.00 0.00 90 1025.0
20211027121820 47 165 3.0 11.0 0.00 0.00 0.00 90 1025.2
20211027120820 47 161 3.0 11.0 0.00 0.00 0.00 90 1025.4
20211027115820 47 176 6.0 9.0 0.00 0.00 0.00 90 1025.5
20211027113025 47 174 1.0 12.0 0.00 0.00 0.00 90 1025.7
20211027112025 47 206 3.0 8.0 0.00 0.00 0.00 90 1025.9
20211027111006 47 186 4.0 12.0 0.00 0.00 0.00 91 1025.9
20211027110006 47 190 4.0 9.0 0.00 0.00 0.00 90 1025.9
20211027105006 47 212 4.0 11.0 0.00 0.00 0.00 90 1025.9
20211027104006 47 202 3.0 11.0 0.00 0.00 0.00 90 1025.9
20211027103006 47 180 8.0 16.0 0.00 0.00 0.00 89 1025.9
20211027102006 48 184 3.0 12.0 0.00 0.00 0.00 88 1025.9
20211027101006 48 190 3.0 14.0 0.00 0.00 0.00 88 1025.9
20211027100006 48 178 6.0 12.0 0.00 0.00 0.00 87 1025.9
20211027095006 48 178 3.0 9.0 0.00 0.00 0.00 88 1025.9
20211027094006 48 170 3.0 9.0 0.00 0.00 0.00 89 1025.9
20211027093006 48 175 1.0 4.0 0.00 0.00 0.00 89 1025.9
20211027092006 48 0 0.0 3.0 0.00 0.00 0.00 90 1026.0
20211027091006 47 0 0.0 4.0 0.00 0.00 0.00 90 1026.0
20211027090006 47 0 0.0 6.0 0.00 0.00 0.00 90 1026.0
20211027085006 47 0 0.0 4.0 0.00 0.00 0.00 92 1026.0
20211027084006 46 0 0.0 4.0 0.00 0.00 0.00 92 1026.0
20211027083006 46 0 0.0 6.0 0.00 0.00 0.00 93 1026.2
20211027082006 46 201 3.0 4.0 0.00 0.00 0.00 93 1026.0
20211027081006 46 201 1.0 6.0 0.00 0.00 0.00 93 1026.0
20211027080006 46 215 1.0 6.0 0.00 0.00 0.00 93 1026.0
20211027075006 45 258 1.0 4.0 0.00 0.00 0.00 94 1026.0
20211027074006 45 0 0.0 4.0 0.00 0.00 0.00 94 1026.0
20211027073006 44 0 0.0 0.0 0.00 0.00 0.00 95 1025.9
20211027072006 44 0 0.0 1.0 0.00 0.00 0.00 95 1025.8
20211027071006 44 0 0.0 3.0 0.00 0.00 0.00 95 1025.7
20211027070006 44 260 1.0 4.0 0.00 0.00 0.00 95 1025.5
20211027065006 43 0 0.0 3.0 0.00 0.00 0.00 95 1025.4
20211027064006 42 0 0.0 1.0 0.00 0.00 0.00 95 1025.3
20211027063006 42 0 0.0 1.0 0.00 0.00 0.00 95 1025.3
20211027062006 42 0 0.0 1.0 0.00 0.00 0.00 94 1025.3
20211027061006 43 0 0.0 4.0 0.00 0.00 0.00 94 1025.0
20211027060006 42 0 0.0 3.0 0.00 0.00 0.00 93 1024.9
20211027055006 43 260 1.0 6.0 0.00 0.00 0.00 94 1024.9
20211027054006 43 199 1.0 4.0 0.00 0.00 0.00 94 1024.9
20211027053006 43 0 0.0 4.0 0.00 0.00 0.00 94 1024.8
20211027052006 43 197 1.0 8.0 0.00 0.00 0.00 94 1024.7
20211027051006 44 217 1.0 12.0 0.00 0.00 0.00 94 1024.5
20211027050006 44 230 4.0 8.0 0.00 0.00 0.00 94 1024.5
20211027045006 44 0 0.0 3.0 0.00 0.00 0.00 94 1024.5
20211027044006 44 0 0.0 3.0 0.00 0.00 0.00 95 1024.7
20211027043006 45 0 0.0 4.0 0.00 0.00 0.00 95 1024.5
20211027042006 45 201 1.0 8.0 0.00 0.00 0.00 95 1024.7
20211027041005 45 0 0.0 8.0 0.00 0.00 0.00 95 1024.5
20211027040005 45 206 3.0 8.0 0.00 0.00 0.00 95 1024.5
20211027035006 45 217 1.0 8.0 0.00 0.00 0.00 95 1024.5
20211027034005 44 205 1.0 8.0 0.00 0.00 0.00 95 1024.5
20211027033005 44 0 0.0 4.0 0.00 0.00 0.00 95 1024.4
20211027032006 43 0 0.0 1.0 0.00 0.00 0.00 95 1024.4
20211027031006 43 202 1.0 3.0 0.00 0.00 0.00 95 1024.3
20211027030006 43 0 0.0 1.0 0.00 0.00 0.00 95 1024.3
20211027025006 43 0 0.0 3.0 0.00 0.00 0.00 95 1024.4
20211027024005 43 0 0.0 3.0 0.00 0.00 0.00 95 1024.5
20211027023005 43 0 0.0 1.0 0.00 0.00 0.00 95 1024.5
20211027022005 43 0 0.0 1.0 0.00 0.00 0.00 95 1024.4
20211027021006 43 0 0.0 1.0 0.00 0.00 0.00 95 1024.5
20211027020005 43 0 0.0 0.0 0.00 0.00 0.00 95 1024.7
20211027015005 43 0 0.0 1.0 0.00 0.00 0.00 95 1024.5
20211027014005 43 0 0.0 1.0 0.00 0.00 0.00 95 1023.7
20211027013005 43 202 1.0 3.0 0.00 0.00 0.00 95 1023.7
20211027012006 44 0 0.0 3.0 0.00 0.00 0.00 95 1023.6
20211027011005 43 0 0.0 1.0 0.00 0.00 0.00 95 1023.7
20211027010006 43 0 0.0 0.0 0.00 0.00 0.00 94 1023.7
20211027005005 44 0 0.0 3.0 0.00 0.00 0.00 94 1023.6
20211027004005 44 0 0.0 1.0 0.00 0.00 0.00 94 1023.5
20211027003006 44 0 0.0 3.0 0.00 0.00 0.00 93 1023.2
20211027002005 45 0 0.0 3.0 0.00 0.00 0.00 94 1023.4
20211027001005 45 0 0.0 3.0 0.00 0.00 0.00 94 1023.6
20211027000006 45 0 0.0 6.0 0.00 0.00 0.00 94 1023.6
20211026235006 45 202 1.0 3.0 0.00 0.00 0.00 94 1023.5
20211026234005 45 0 0.0 4.0 0.00 0.00 0.00 94 1023.6
20211026233005 45 0 0.0 3.0 0.00 0.00 0.00 95 1023.6
20211026232005 45 0 0.0 3.0 0.00 0.00 0.00 95 1023.6
20211026231005 45 0 0.0 1.0 0.00 0.00 0.00 94 1023.7
20211026230006 46 0 0.0 3.0 0.00 0.00 0.00 94 1023.7
20211026225005 46 0 0.0 4.0 0.00 0.00 0.00 94 1023.6
20211026224005 46 0 0.0 8.0 0.00 0.00 0.00 95 1023.6
20211026223005 45 202 1.0 8.0 0.00 0.00 0.00 94 1023.7
20211026222005 45 202 1.0 6.0 0.00 0.00 0.00 94 1023.7
20211026221005 45 207 3.0 8.0 0.00 0.00 0.00 94 1023.7
20211026220005 45 256 4.0 8.0 0.00 0.00 0.00 94 1023.7
20211026215005 45 258 3.0 9.0 0.00 0.00 0.00 94 1023.7
20211026214005 46 256 3.0 12.0 0.00 0.00 0.00 94 1023.7
20211026213006 45 232 4.0 9.0 0.00 0.00 0.00 94 1023.7
20211026212005 45 206 3.0 11.0 0.00 0.00 0.00 94 1023.7
20211026211005 45 249 6.0 14.0 0.00 0.00 0.00 94 1023.7
20211026210005 45 250 4.0 9.0 0.00 0.00 0.00 94 1023.6
20211026205005 46 223 4.0 9.0 0.00 0.00 0.00 94 1023.7
20211026204005 46 203 3.0 8.0 0.00 0.00 0.00 94 1023.7
20211026203005 46 202 1.0 6.0 0.00 0.00 0.00 94 1023.9
20211026202005 46 0 0.0 3.0 0.00 0.00 0.00 94 1023.7
20211026201005 46 0 0.0 8.0 0.00 0.00 0.00 94 1023.9